Simultaneous Nadir Overpasses (SNOs) Predictions

Prediction of SNOs between GOES-16 and NPP Satellite Orbit:

Table of predicted SNOs for the next 14.0 days since TLE Epoch: 3/23/2024
Index Date Time (GOES-16) GOES-16 Lat,Lon NPP Lat,Lon Distance(km) Time Diff (sec)
1 03/23/2024 18:11:13 0.03, -75.21 0.90, -71.28 447.15 80
2 03/25/2024 06:33:02 -0.03, -75.22 0.26, -76.56 152.86 80
3 03/26/2024 06:11:38 -0.03, -75.23 -0.72, -72.03 363.81 80
4 03/27/2024 18:33:36 0.03, -75.24 -0.43, -77.35 240.15 80
5 03/28/2024 18:17:32 0.03, -75.25 0.55, -72.81 276.86 80
6 03/30/2024 06:39:21 -0.03, -75.27 0.60, -78.10 322.37 80
7 03/31/2024 06:17:57 -0.03, -75.28 -0.39, -73.56 194.58 80
8 04/01/2024 18:39:54 0.02, -75.29 -0.81, -78.87 409.26 80
9 04/02/2024 18:23:50 0.02, -75.30 0.24, -74.35 108.06 80
10 04/04/2024 06:45:39 -0.01, -75.32 0.95, -79.63 490.25 80
11 04/05/2024 06:24:14 -0.01, -75.34 -0.04, -75.09 27.41 80
